Saint Bonnet de Bellac- Haute Vienne - France
Donnes mto: jeudi, 05/07/2012
Date Horaire Temp. E. Hum. E. P.atmo. Pluie Vent Direction Direction Ensoleilleme Solaire P. de rose Temp au vent Rafales
05/07/2012 00:00 16,8 C 86 % 1011,7 hPa 0,0 mm 0,0 km/h (0 Bft) S-SO 202 0 min 0 W/m 14,4 C 16,8 C 0,0 km/h (0 Bft)
05/07/2012 00:10 16,7 C 86 % 1011,7 hPa 0,0 mm 0,0 km/h (0 Bft) S-SO 202 0 min 0 W/m 14,3 C 16,7 C 0,0 km/h (0 Bft)
05/07/2012 00:20 16,6 C 86 % 1011,8 hPa 0,0 mm 0,0 km/h (0 Bft) S-SO 202 0 min 0 W/m 14,2 C 16,6 C 0,0 km/h (0 Bft)
05/07/2012 00:30 16,6 C 86 % 1011,8 hPa 0,0 mm 0,0 km/h (0 Bft) S-SO 202 0 min 0 W/m 14,2 C 16,6 C 0,0 km/h (0 Bft)
05/07/2012 00:40 16,6 C 86 % 1011,9 hPa 0,0 mm 0,0 km/h (0 Bft) S-SO 202 0 min 0 W/m 14,2 C 16,6 C 0,0 km/h (0 Bft)
05/07/2012 00:50 16,6 C 86 % 1011,9 hPa 0,0 mm 0,0 km/h (0 Bft) S-SO 202 0 min 0 W/m 14,2 C 16,6 C 0,0 km/h (0 Bft)
05/07/2012 01:00 16,6 C 87 % 1011,9 hPa 0,0 mm 0,0 km/h (0 Bft) S-SO 202 0 min 0 W/m 14,4 C 16,6 C 0,0 km/h (0 Bft)
05/07/2012 01:10 16,6 C 87 % 1011,8 hPa 0,0 mm 0,0 km/h (0 Bft) S-SO 202 0 min 0 W/m 14,4 C 16,6 C 0,0 km/h (0 Bft)
05/07/2012 01:20 16,6 C 87 % 1011,8 hPa 0,0 mm 0,0 km/h (0 Bft) S-SO 202 0 min 0 W/m 14,4 C 16,6 C 0,0 km/h (0 Bft)
05/07/2012 01:30 16,6 C 87 % 1011,8 hPa 0,0 mm 0,0 km/h (0 Bft) S-SO 202 0 min 0 W/m 14,4 C 16,6 C 0,0 km/h (0 Bft)
05/07/2012 01:40 16,6 C 87 % 1011,8 hPa 0,0 mm 0,0 km/h (0 Bft) S-SO 202 0 min 0 W/m 14,4 C 16,6 C 0,0 km/h (0 Bft)
05/07/2012 01:50 16,6 C 87 % 1011,8 hPa 0,0 mm 0,0 km/h (0 Bft) S-SO 202 0 min 0 W/m 14,4 C 16,6 C 0,0 km/h (0 Bft)
05/07/2012 02:00 16,6 C 87 % 1011,8 hPa 0,0 mm 0,0 km/h (0 Bft) S-SO 202 0 min 0 W/m 14,4 C 16,6 C 0,0 km/h (0 Bft)
05/07/2012 02:10 16,5 C 87 % 1011,8 hPa 0,0 mm 0,0 km/h (0 Bft) S-SO 202 0 min 0 W/m 14,3 C 16,5 C 0,0 km/h (0 Bft)
05/07/2012 02:20 16,5 C 88 % 1011,7 hPa 0,0 mm 0,0 km/h (0 Bft) S-SO 202 0 min 0 W/m 14,5 C 16,5 C 0,0 km/h (0 Bft)
05/07/2012 02:30 16,4 C 88 % 1011,6 hPa 0,0 mm 0,0 km/h (0 Bft) S-SO 202 0 min 0 W/m 14,4 C 16,4 C 0,0 km/h (0 Bft)
05/07/2012 02:40 16,3 C 88 % 1011,4 hPa 0,0 mm 0,0 km/h (0 Bft) S-SO 202 0 min 0 W/m 14,3 C 16,3 C 0,0 km/h (0 Bft)
05/07/2012 02:50 16,3 C 89 % 1011,4 hPa 0,0 mm 0,0 km/h (0 Bft) S-SO 202 0 min 0 W/m 14,5 C 16,3 C 0,0 km/h (0 Bft)
05/07/2012 03:02 16,2 C 89 % 1011,2 hPa 0,0 mm 0,0 km/h (0 Bft) S-SO 202 0 min 0 W/m 14,4 C 16,2 C 0,0 km/h (0 Bft)
05/07/2012 03:10 16,2 C 89 % 1011,2 hPa 0,0 mm 0,0 km/h (0 Bft) S-SO 202 0 min 0 W/m 14,4 C 16,2 C 0,0 km/h (0 Bft)
05/07/2012 03:20 16,1 C 89 % 1011,2 hPa 0,0 mm 0,0 km/h (0 Bft) S-SO 202 0 min 0 W/m 14,3 C 16,1 C 0,0 km/h (0 Bft)
05/07/2012 03:30 15,9 C 89 % 1011,0 hPa 0,0 mm 0,0 km/h (0 Bft) S-SO 202 0 min 0 W/m 14,1 C 15,9 C 0,0 km/h (0 Bft)
05/07/2012 03:40 15,8 C 89 % 1010,9 hPa 0,0 mm 0,0 km/h (0 Bft) S-SO 202 0 min 0 W/m 14,0 C 15,8 C 0,0 km/h (0 Bft)
05/07/2012 03:50 15,5 C 89 % 1010,9 hPa 0,0 mm 0,0 km/h (0 Bft) SO 225 0 min 0 W/m 13,7 C 15,5 C 0,0 km/h (0 Bft)
05/07/2012 04:00 15,5 C 90 % 1010,9 hPa 0,0 mm 0,0 km/h (0 Bft) S-SO 202 0 min 0 W/m 13,9 C 15,5 C 0,0 km/h (0 Bft)
05/07/2012 04:10 15,5 C 91 % 1010,9 hPa 0,0 mm 0,0 km/h (0 Bft) SO 225 0 min 0 W/m 14,0 C 15,5 C 0,0 km/h (0 Bft)
05/07/2012 04:20 15,6 C 91 % 1011,0 hPa 0,0 mm 0,0 km/h (0 Bft) SO 225 0 min 0 W/m 14,1 C 15,6 C 0,0 km/h (0 Bft)
05/07/2012 04:30 15,8 C 91 % 1011,0 hPa 0,0 mm 0,0 km/h (0 Bft) N 360 0 min 0 W/m 14,3 C 15,8 C 0,0 km/h (0 Bft)
05/07/2012 04:40 15,8 C 91 % 1010,9 hPa 0,0 mm 0,0 km/h (0 Bft) O-SO 247 0 min 0 W/m 14,3 C 15,8 C 3,2 km/h (1 Bft)
05/07/2012 04:50 15,9 C 91 % 1010,7 hPa 0,0 mm 0,0 km/h (0 Bft) O-SO 247 0 min 0 W/m 14,4 C 15,9 C 0,0 km/h (0 Bft)
05/07/2012 05:00 15,9 C 91 % 1010,7 hPa 0,0 mm 0,0 km/h (0 Bft) O-SO 247 0 min 0 W/m 14,4 C 15,9 C 0,0 km/h (0 Bft)
05/07/2012 05:10 15,9 C 91 % 1010,7 hPa 0,0 mm 0,0 km/h (0 Bft) O-SO 247 0 min 0 W/m 14,4 C 15,9 C 0,0 km/h (0 Bft)
05/07/2012 05:20 16,0 C 91 % 1010,8 hPa 0,0 mm 0,0 km/h (0 Bft) O-SO 247 0 min 0 W/m 14,5 C 16,0 C 0,0 km/h (0 Bft)
05/07/2012 05:30 16,1 C 91 % 1010,7 hPa 0,0 mm 1,8 km/h (1 Bft) N-NO 337 0 min 0 W/m 14,6 C 16,1 C 4,3 km/h (1 Bft)
05/07/2012 05:40 15,9 C 91 % 1010,8 hPa 0,0 mm 1,1 km/h (1 Bft) N-NO 337 0 min 0 W/m 14,4 C 15,9 C 2,9 km/h (1 Bft)
05/07/2012 05:50 15,8 C 90 % 1010,7 hPa 0,0 mm 0,0 km/h (0 Bft) O-NO 292 0 min 0 W/m 14,2 C 15,8 C 0,0 km/h (0 Bft)
05/07/2012 06:00 15,8 C 89 % 1010,5 hPa 0,0 mm 0,0 km/h (0 Bft) NO 315 0 min 0 W/m 14,0 C 15,8 C 0,0 km/h (0 Bft)
05/07/2012 06:10 15,7 C 88 % 1010,3 hPa 0,0 mm 2,5 km/h (1 Bft) O-NO 292 0 min 0 W/m 13,7 C 15,7 C 7,9 km/h (2 Bft)
05/07/2012 06:20 15,6 C 88 % 1010,2 hPa 0,0 mm 0,0 km/h (0 Bft) N-NO 337 0 min 0 W/m 13,6 C 15,6 C 0,0 km/h (0 Bft)
05/07/2012 06:30 15,5 C 87 % 1010,4 hPa 0,0 mm 0,0 km/h (0 Bft) N-NO 337 0 min 0 W/m 13,3 C 15,5 C 0,0 km/h (0 Bft)
05/07/2012 06:40 15,5 C 87 % 1010,4 hPa 0,0 mm 0,0 km/h (0 Bft) O 270 0 min 0 W/m 13,3 C 15,5 C 0,0 km/h (0 Bft)
05/07/2012 06:50 15,4 C 87 % 1010,5 hPa 0,0 mm 0,0 km/h (0 Bft) O 270 0 min 0 W/m 13,2 C 15,4 C 0,0 km/h (0 Bft)
05/07/2012 07:00 15,4 C 87 % 1010,4 hPa 0,0 mm 0,0 km/h (0 Bft) O 270 0 min 0 W/m 13,2 C 15,4 C 0,0 km/h (0 Bft)
05/07/2012 07:10 15,4 C 87 % 1010,3 hPa 0,0 mm 0,0 km/h (0 Bft) O 270 0 min 0 W/m 13,2 C 15,4 C 0,0 km/h (0 Bft)
05/07/2012 07:20 15,4 C 87 % 1010,2 hPa 0,0 mm 0,0 km/h (0 Bft) O 270 0 min 0 W/m 13,2 C 15,4 C 0,0 km/h (0 Bft)
05/07/2012 07:30 15,4 C 87 % 1010,3 hPa 0,0 mm 0,0 km/h (0 Bft) O 270 0 min 0 W/m 13,2 C 15,4 C 0,0 km/h (0 Bft)
05/07/2012 07:40 15,4 C 87 % 1010,3 hPa 0,0 mm 0,0 km/h (0 Bft) O 270 0 min 0 W/m 13,2 C 15,4 C 3,2 km/h (1 Bft)
05/07/2012 07:50 15,3 C 87 % 1010,4 hPa 0,0 mm 0,0 km/h (0 Bft) NO 315 0 min 0 W/m 13,1 C 15,3 C 0,0 km/h (0 Bft)
05/07/2012 08:00 15,3 C 87 % 1010,5 hPa 0,0 mm 0,0 km/h (0 Bft) NO 315 0 min 0 W/m 13,1 C 15,3 C 0,0 km/h (0 Bft)
05/07/2012 08:10 15,3 C 87 % 1010,6 hPa 0,0 mm 0,0 km/h (0 Bft) NO 315 0 min 0 W/m 13,1 C 15,3 C 0,0 km/h (0 Bft)
05/07/2012 08:20 15,3 C 86 % 1010,6 hPa 0,0 mm 0,0 km/h (0 Bft) NO 315 0 min 0 W/m 13,0 C 15,3 C 0,0 km/h (0 Bft)
05/07/2012 08:30 15,6 C 86 % 1010,5 hPa 0,0 mm 0,0 km/h (0 Bft) O 270 0 min 0 W/m 13,3 C 15,6 C 0,0 km/h (0 Bft)
05/07/2012 08:40 15,8 C 86 % 1010,7 hPa 0,0 mm 0,0 km/h (0 Bft) O 270 0 min 0 W/m 13,5 C 15,8 C 0,0 km/h (0 Bft)
05/07/2012 08:50 15,9 C 85 % 1010,7 hPa 0,0 mm 0,0 km/h (0 Bft) O-SO 247 0 min 0 W/m 13,4 C 15,9 C 0,0 km/h (0 Bft)
05/07/2012 09:00 15,9 C 85 % 1010,7 hPa 0,0 mm 0,0 km/h (0 Bft) O 270 0 min 0 W/m 13,4 C 15,9 C 0,0 km/h (0 Bft)
05/07/2012 09:10 15,9 C 85 % 1010,9 hPa 0,0 mm 0,0 km/h (0 Bft) O-SO 247 0 min 0 W/m 13,4 C 15,9 C 0,0 km/h (0 Bft)
05/07/2012 09:20 15,8 C 85 % 1010,9 hPa 0,0 mm 0,7 km/h (0 Bft) O 270 0 min 0 W/m 13,3 C 15,8 C 0,7 km/h (0 Bft)
05/07/2012 09:30 15,8 C 85 % 1011,1 hPa 0,0 mm 0,0 km/h (0 Bft) O-SO 247 0 min 0 W/m 13,3 C 15,8 C 0,0 km/h (0 Bft)
05/07/2012 09:40 15,9 C 85 % 1010,8 hPa 0,0 mm 0,0 km/h (0 Bft) N-NO 337 0 min 0 W/m 13,4 C 15,9 C 0,0 km/h (0 Bft)
05/07/2012 09:50 16,1 C 85 % 1010,8 hPa 0,0 mm 0,0 km/h (0 Bft) O 270 0 min 0 W/m 13,6 C 16,1 C 0,0 km/h (0 Bft)
05/07/2012 10:00 16,0 C 84 % 1011,2 hPa 0,0 mm 0,0 km/h (0 Bft) O-SO 247 0 min 0 W/m 13,3 C 16,0 C 0,0 km/h (0 Bft)
05/07/2012 10:10 16,1 C 84 % 1011,2 hPa 0,0 mm 0,0 km/h (0 Bft) O-SO 247 0 min 0 W/m 13,4 C 16,1 C 0,0 km/h (0 Bft)
05/07/2012 10:20 16,2 C 85 % 1011,2 hPa 0,0 mm 0,0 km/h (0 Bft) O-SO 247 0 min 0 W/m 13,7 C 16,2 C 0,0 km/h (0 Bft)
05/07/2012 10:30 16,3 C 84 % 1011,3 hPa 0,0 mm 0,0 km/h (0 Bft) O-NO 292 0 min 0 W/m 13,6 C 16,3 C 0,0 km/h (0 Bft)
05/07/2012 10:40 16,1 C 84 % 1011,1 hPa 0,0 mm 2,9 km/h (1 Bft) O-SO 247 0 min 0 W/m 13,4 C 16,1 C 3,6 km/h (1 Bft)
05/07/2012 10:50 16,1 C 84 % 1011,1 hPa 0,0 mm 0,0 km/h (0 Bft) O 270 0 min 0 W/m 13,4 C 16,1 C 3,2 km/h (1 Bft)
05/07/2012 11:00 16,1 C 83 % 1011,0 hPa 0,0 mm 1,1 km/h (1 Bft) NO 315 0 min 0 W/m 13,2 C 16,1 C 4,0 km/h (1 Bft)
05/07/2012 11:10 15,8 C 83 % 1011,4 hPa 0,2 mm 4,3 km/h (1 Bft) O 270 0 min 0 W/m 12,9 C 15,8 C 7,6 km/h (2 Bft)
05/07/2012 11:20 15,4 C 82 % 1011,3 hPa 0,0 mm 0,4 km/h (0 Bft) NO 315 0 min 0 W/m 12,3 C 15,4 C 4,3 km/h (1 Bft)
05/07/2012 11:30 15,0 C 84 % 1011,6 hPa 0,2 mm 0,0 km/h (0 Bft) O 270 0 min 0 W/m 12,3 C 15,0 C 0,0 km/h (0 Bft)
05/07/2012 11:40 14,8 C 84 % 1011,5 hPa 0,1 mm 0,0 km/h (0 Bft) O-SO 247 0 min 0 W/m 12,1 C 14,8 C 0,0 km/h (0 Bft)
05/07/2012 11:50 14,5 C 85 % 1011,7 hPa 0,2 mm 0,0 km/h (0 Bft) O 270 0 min 0 W/m 12,0 C 14,5 C 2,9 km/h (1 Bft)
05/07/2012 12:00 14,5 C 86 % 1011,8 hPa 0,0 mm 0,0 km/h (0 Bft) O 270 0 min 0 W/m 12,2 C 14,5 C 0,0 km/h (0 Bft)
05/07/2012 12:10 14,4 C 85 % 1011,9 hPa 0,0 mm 0,0 km/h (0 Bft) N 360 0 min 0 W/m 11,9 C 14,4 C 0,0 km/h (0 Bft)
05/07/2012 12:20 14,6 C 86 % 1011,7 hPa 0,0 mm 0,0 km/h (0 Bft) O-SO 247 0 min 0 W/m 12,3 C 14,6 C 0,0 km/h (0 Bft)
05/07/2012 12:30 14,8 C 86 % 1011,6 hPa 0,0 mm 0,0 km/h (0 Bft) O-SO 247 0 min 0 W/m 12,5 C 14,8 C 0,0 km/h (0 Bft)
05/07/2012 12:40 15,1 C 85 % 1011,6 hPa 0,1 mm 0,0 km/h (0 Bft) O-SO 247 0 min 0 W/m 12,6 C 15,1 C 0,0 km/h (0 Bft)
05/07/2012 12:50 15,2 C 85 % 1011,6 hPa 0,0 mm 0,0 km/h (0 Bft) O-SO 247 0 min 0 W/m 12,7 C 15,2 C 0,0 km/h (0 Bft)
05/07/2012 13:00 15,3 C 84 % 1011,7 hPa 0,0 mm 0,0 km/h (0 Bft) O-SO 247 0 min 0 W/m 12,6 C 15,3 C 0,0 km/h (0 Bft)
05/07/2012 13:10 15,4 C 84 % 1011,8 hPa 0,0 mm 0,0 km/h (0 Bft) O 270 0 min 0 W/m 12,7 C 15,4 C 0,0 km/h (0 Bft)
05/07/2012 13:20 15,4 C 83 % 1011,8 hPa 0,0 mm 0,0 km/h (0 Bft) O 270 0 min 0 W/m 12,5 C 15,4 C 0,0 km/h (0 Bft)
05/07/2012 13:30 15,4 C 83 % 1011,8 hPa 0,0 mm 0,0 km/h (0 Bft) O 270 0 min 0 W/m 12,5 C 15,4 C 0,0 km/h (0 Bft)
05/07/2012 13:40 15,5 C 83 % 1011,7 hPa 0,0 mm 0,0 km/h (0 Bft) O 270 0 min 0 W/m 12,6 C 15,5 C 0,0 km/h (0 Bft)
05/07/2012 13:50 15,6 C 83 % 1011,7 hPa 0,0 mm 0,4 km/h (0 Bft) SO 225 0 min 0 W/m 12,7 C 15,6 C 3,2 km/h (1 Bft)
05/07/2012 14:00 15,7 C 84 % 1011,8 hPa 0,1 mm 1,1 km/h (1 Bft) S-SO 202 0 min 0 W/m 13,0 C 15,7 C 6,1 km/h (2 Bft)
05/07/2012 14:10 15,8 C 83 % 1011,7 hPa 0,0 mm 0,0 km/h (0 Bft) O-SO 247 0 min 0 W/m 12,9 C 15,8 C 0,0 km/h (0 Bft)
05/07/2012 14:20 16,0 C 82 % 1011,7 hPa 0,0 mm 1,8 km/h (1 Bft) SO 225 0 min 0 W/m 12,9 C 16,0 C 4,0 km/h (1 Bft)
05/07/2012 14:30 16,1 C 82 % 1011,6 hPa 0,0 mm 0,0 km/h (0 Bft) O-SO 247 0 min 0 W/m 13,0 C 16,1 C 0,0 km/h (0 Bft)
05/07/2012 14:40 16,3 C 82 % 1011,5 hPa 0,0 mm 0,0 km/h (0 Bft) S-SO 202 0 min 0 W/m 13,2 C 16,3 C 0,0 km/h (0 Bft)
05/07/2012 14:50 16,3 C 81 % 1011,7 hPa 0,0 mm 0,7 km/h (0 Bft) SO 225 0 min 0 W/m 13,0 C 16,3 C 3,6 km/h (1 Bft)
05/07/2012 15:00 16,3 C 81 % 1011,6 hPa 0,0 mm 0,0 km/h (0 Bft) SO 225 0 min 0 W/m 13,0 C 16,3 C 0,0 km/h (0 Bft)
05/07/2012 15:10 16,4 C 82 % 1011,6 hPa 0,0 mm 1,8 km/h (1 Bft) SO 225 0 min 0 W/m 13,3 C 16,4 C 4,3 km/h (1 Bft)
05/07/2012 15:20 16,4 C 82 % 1011,8 hPa 0,0 mm 0,0 km/h (0 Bft) S-SE 157 0 min 0 W/m 13,3 C 16,4 C 0,0 km/h (0 Bft)
05/07/2012 15:30 16,4 C 82 % 1011,8 hPa 0,0 mm 1,1 km/h (1 Bft) S-SO 202 0 min 0 W/m 13,3 C 16,4 C 2,9 km/h (1 Bft)
05/07/2012 15:40 16,4 C 81 % 1011,9 hPa 0,0 mm 0,0 km/h (0 Bft) O-SO 247 0 min 0 W/m 13,1 C 16,4 C 0,0 km/h (0 Bft)
05/07/2012 15:50 16,4 C 80 % 1012,0 hPa 0,0 mm 1,8 km/h (1 Bft) S-SO 202 0 min 0 W/m 12,9 C 16,4 C 1,8 km/h (1 Bft)
05/07/2012 16:00 16,4 C 81 % 1012,0 hPa 0,0 mm 3,2 km/h (1 Bft) SO 225 0 min 0 W/m 13,1 C 16,4 C 3,2 km/h (1 Bft)
05/07/2012 16:10 16,6 C 81 % 1011,8 hPa 0,0 mm 2,5 km/h (1 Bft) SO 225 0 min 0 W/m 13,3 C 16,6 C 4,0 km/h (1 Bft)
05/07/2012 16:20 17,1 C 80 % 1011,7 hPa 0,0 mm 0,0 km/h (0 Bft) O-SO 247 0 min 0 W/m 13,6 C 17,1 C 2,9 km/h (1 Bft)
05/07/2012 16:30 17,3 C 78 % 1011,7 hPa 0,0 mm 0,0 km/h (0 Bft) SO 225 0 min 0 W/m 13,4 C 17,3 C 0,0 km/h (0 Bft)
05/07/2012 16:40 17,6 C 77 % 1011,5 hPa 0,0 mm 1,1 km/h (1 Bft) SO 225 0 min 0 W/m 13,5 C 17,6 C 4,0 km/h (1 Bft)
05/07/2012 16:50 17,9 C 76 % 1011,5 hPa 0,0 mm 0,7 km/h (0 Bft) SO 225 0 min 0 W/m 13,6 C 17,9 C 3,2 km/h (1 Bft)
05/07/2012 17:00 18,2 C 76 % 1011,6 hPa 0,0 mm 4,0 km/h (1 Bft) SO 225 0 min 0 W/m 13,9 C 18,2 C 6,1 km/h (2 Bft)
05/07/2012 17:10 18,6 C 75 % 1011,5 hPa 0,0 mm 1,4 km/h (1 Bft) S-SO 202 0 min 0 W/m 14,1 C 18,6 C 4,0 km/h (1 Bft)
05/07/2012 17:20 18,9 C 74 % 1011,5 hPa 0,0 mm 1,1 km/h (1 Bft) O-SO 247 0 min 0 W/m 14,2 C 18,9 C 4,0 km/h (1 Bft)
05/07/2012 17:30 19,1 C 74 % 1011,3 hPa 0,0 mm 5,0 km/h (1 Bft) S-SO 202 0 min 0 W/m 14,4 C 19,1 C 7,9 km/h (2 Bft)
05/07/2012 17:40 19,4 C 73 % 1011,3 hPa 0,0 mm 1,4 km/h (1 Bft) O-SO 247 0 min 0 W/m 14,4 C 19,4 C 6,1 km/h (2 Bft)
05/07/2012 17:50 19,6 C 70 % 1011,3 hPa 0,0 mm 5,8 km/h (2 Bft) SO 225 0 min 0 W/m 14,0 C 19,6 C 5,8 km/h (2 Bft)
05/07/2012 18:00 19,9 C 72 % 1011,3 hPa 0,0 mm 5,4 km/h (2 Bft) S-SO 202 0 min 0 W/m 14,7 C 19,9 C 6,1 km/h (2 Bft)
05/07/2012 18:10 20,0 C 70 % 1011,2 hPa 0,0 mm 4,3 km/h (1 Bft) S-SO 202 0 min 0 W/m 14,4 C 20,0 C 6,1 km/h (2 Bft)
05/07/2012 18:20 19,8 C 71 % 1011,0 hPa 0,0 mm 4,7 km/h (1 Bft) S 180 0 min 0 W/m 14,4 C 19,8 C 4,7 km/h (1 Bft)
05/07/2012 18:30 19,6 C 71 % 1011,1 hPa 0,0 mm 3,2 km/h (1 Bft) S-SO 202 0 min 0 W/m 14,2 C 19,6 C 6,5 km/h (2 Bft)
05/07/2012 18:40 19,3 C 73 % 1011,0 hPa 0,0 mm 5,8 km/h (2 Bft) S-SE 157 0 min 0 W/m 14,3 C 19,3 C 7,2 km/h (2 Bft)
05/07/2012 18:50 19,5 C 73 % 1011,0 hPa 0,0 mm 9,0 km/h (2 Bft) S-SO 202 0 min 0 W/m 14,5 C 19,5 C 13,7 km/h (3 Bft)
05/07/2012 19:00 19,7 C 72 % 1010,8 hPa 0,0 mm 5,8 km/h (2 Bft) S-SO 202 0 min 0 W/m 14,5 C 19,7 C 10,1 km/h (2 Bft)
05/07/2012 19:10 19,3 C 72 % 1010,7 hPa 0,0 mm 8,3 km/h (2 Bft) S 180 0 min 0 W/m 14,1 C 19,3 C 10,4 km/h (2 Bft)
05/07/2012 19:20 18,8 C 74 % 1010,8 hPa 0,0 mm 7,6 km/h (2 Bft) S-SO 202 0 min 0 W/m 14,1 C 18,8 C 7,6 km/h (2 Bft)
05/07/2012 19:30 18,4 C 76 % 1010,9 hPa 0,0 mm 6,5 km/h (2 Bft) SO 225 0 min 0 W/m 14,1 C 18,4 C 9,4 km/h (2 Bft)
05/07/2012 19:40 18,3 C 75 % 1010,9 hPa 0,0 mm 5,4 km/h (2 Bft) O-SO 247 0 min 0 W/m 13,8 C 18,3 C 6,5 km/h (2 Bft)
05/07/2012 19:50 18,3 C 77 % 1010,9 hPa 0,0 mm 2,9 km/h (1 Bft) S-SE 157 0 min 0 W/m 14,2 C 18,3 C 2,9 km/h (1 Bft)
05/07/2012 20:00 18,5 C 77 % 1010,7 hPa 0,0 mm 5,0 km/h (1 Bft) SO 225 0 min 0 W/m 14,4 C 18,5 C 9,7 km/h (2 Bft)
05/07/2012 20:10 18,5 C 74 % 1010,7 hPa 0,0 mm 9,4 km/h (2 Bft) SO 225 0 min 0 W/m 13,8 C 18,5 C 11,5 km/h (2 Bft)
05/07/2012 20:20 18,2 C 74 % 1010,7 hPa 0,0 mm 8,6 km/h (2 Bft) S 180 0 min 0 W/m 13,5 C 18,2 C 8,6 km/h (2 Bft)
05/07/2012 20:30 18,0 C 75 % 1010,7 hPa 0,0 mm 7,9 km/h (2 Bft) SO 225 0 min 0 W/m 13,5 C 18,0 C 10,1 km/h (2 Bft)
05/07/2012 20:40 17,8 C 76 % 1010,7 hPa 0,0 mm 6,5 km/h (2 Bft) O-SO 247 0 min 0 W/m 13,5 C 17,8 C 9,0 km/h (2 Bft)
05/07/2012 20:50 17,4 C 77 % 1010,8 hPa 0,0 mm 5,8 km/h (2 Bft) SO 225 0 min 0 W/m 13,3 C 17,4 C 10,8 km/h (2 Bft)
05/07/2012 21:00 17,1 C 78 % 1010,6 hPa 0,0 mm 5,4 km/h (2 Bft) O-SO 247 0 min 0 W/m 13,2 C 17,1 C 9,7 km/h (2 Bft)
05/07/2012 21:10 16,9 C 79 % 1010,7 hPa 0,0 mm 2,9 km/h (1 Bft) S 180 0 min 0 W/m 13,2 C 16,9 C 6,1 km/h (2 Bft)
05/07/2012 21:20 16,6 C 81 % 1010,8 hPa 0,0 mm 7,2 km/h (2 Bft) SO 225 0 min 0 W/m 13,3 C 16,6 C 9,7 km/h (2 Bft)
05/07/2012 21:30 16,3 C 82 % 1011,0 hPa 0,0 mm 6,5 km/h (2 Bft) S-SO 202 0 min 0 W/m 13,2 C 16,3 C 9,4 km/h (2 Bft)
05/07/2012 21:40 16,1 C 83 % 1011,1 hPa 0,0 mm 2,2 km/h (1 Bft) SO 225 0 min 0 W/m 13,2 C 16,1 C 4,0 km/h (1 Bft)
05/07/2012 21:50 15,9 C 84 % 1011,2 hPa 0,0 mm 7,6 km/h (2 Bft) S-SO 202 0 min 0 W/m 13,2 C 15,9 C 9,7 km/h (2 Bft)
05/07/2012 22:00 15,9 C 84 % 1011,4 hPa 0,0 mm 4,0 km/h (1 Bft) S 180 0 min 0 W/m 13,2 C 15,9 C 7,2 km/h (2 Bft)
05/07/2012 22:10 15,8 C 84 % 1011,4 hPa 0,0 mm 3,6 km/h (1 Bft) O-SO 247 0 min 0 W/m 13,1 C 15,8 C 7,9 km/h (2 Bft)
05/07/2012 22:20 15,6 C 85 % 1011,5 hPa 0,0 mm 3,2 km/h (1 Bft) O-SO 247 0 min 0 W/m 13,1 C 15,6 C 6,5 km/h (2 Bft)
05/07/2012 22:30 15,4 C 85 % 1011,5 hPa 0,0 mm 2,9 km/h (1 Bft) S-SO 202 0 min 0 W/m 12,9 C 15,4 C 3,6 km/h (1 Bft)
05/07/2012 22:40 15,1 C 86 % 1011,5 hPa 0,0 mm 2,9 km/h (1 Bft) S-SO 202 0 min 0 W/m 12,8 C 15,1 C 3,2 km/h (1 Bft)
05/07/2012 22:50 15,0 C 87 % 1011,6 hPa 0,0 mm 7,2 km/h (2 Bft) SO 225 0 min 0 W/m 12,9 C 15,0 C 10,1 km/h (2 Bft)
05/07/2012 23:00 14,9 C 88 % 1011,4 hPa 0,0 mm 4,7 km/h (1 Bft) S-SO 202 0 min 0 W/m 12,9 C 14,9 C 10,4 km/h (2 Bft)
05/07/2012 23:10 15,0 C 89 % 1011,5 hPa 0,0 mm 5,4 km/h (2 Bft) SO 225 0 min 0 W/m 13,2 C 15,0 C 9,4 km/h (2 Bft)
05/07/2012 23:20 14,9 C 89 % 1011,5 hPa 0,1 mm 6,8 km/h (2 Bft) SO 225 0 min 0 W/m 13,1 C 14,9 C 6,8 km/h (2 Bft)
05/07/2012 23:30 14,8 C 89 % 1011,7 hPa 0,0 mm 4,7 km/h (1 Bft) O-SO 247 0 min 0 W/m 13,0 C 14,8 C 7,6 km/h (2 Bft)
05/07/2012 23:40 14,6 C 89 % 1011,7 hPa 0,0 mm 8,3 km/h (2 Bft) SO 225 0 min 0 W/m 12,8 C 14,6 C 9,4 km/h (2 Bft)
05/07/2012 23:50 14,3 C 89 % 1011,5 hPa 0,0 mm 2,5 km/h (1 Bft) SO 225 0 min 0 W/m 12,5 C 14,3 C 3,6 km/h (1 Bft)
_ Min-Heure 23:50 18:10 07:20 - 16:30 - - - - 12:10 23:50 16:30
Minimum _ 14,3 C 70 % 1010,2 hPa - 0,0 km/h (0 Bft) - - - - 11,9 C 14,3 C 0,0 km/h (0 Bft)
_ Max-Heure 18:10 05:40 16:00 11:50 20:10 - - 23:50 23:50 18:00 18:10 18:50
Maximum _ 20,0 C 91 % 1012,0 hPa 0,2 mm 9,4 km/h
SO (2 Bft)
- - 0 min 0 W/m 14,7 C 20,0 C 13,7 km/h
S-SO (3 Bft)
Moyenne _ 16,4 C 84 % 1011,2 hPa #1,0 mm 1,7 km/h (1 Bft) S-SO - #0 min. 0 W/m 13,6 C 16,4 C 2,9 km/h (1 Bft)
Saint Bonnet de Bellac- Haute Vienne - France